DW2465 Weather Reports


Display with metric or nautical units.
time (UTC)temp
F
wind
direction
speed
MPH
gust
MPH
rain 1hr
in
rain 24hr
in
rain mn
in
humidity
%
barometer
mb
20201201073042 20 153 0.0 4.0 0.00 0.00 0.00 80 1020.4
20201201071603 20 156 0.0 0.0 0.00 0.00 0.00 80 1020.3
20201201070048 20 150 0.0 3.0 0.00 0.00 0.00 80 1020.2
20201201063044 20 162 0.0 3.0 0.00 0.00 0.00 78 1020.5
20201201061637 21 161 0.0 0.0 0.00 0.00 0.00 77 1020.5
20201201060107 21 178 0.0 1.0 0.00 0.00 0.00 77 1020.5
20201201053106 22 165 0.0 7.0 0.00 0.00 0.00 76 1020.3
20201201050039 22 140 0.0 5.0 0.00 0.00 0.00 76 1020.3
20201201043028 22 144 0.0 5.0 0.00 0.00 0.00 75 1020.6
20201201041534 23 128 0.0 7.0 0.00 0.00 0.00 74 1020.5
20201201040035 23 118 1.0 7.0 0.00 0.00 0.00 75 1020.6
20201201033023 22 113 0.0 2.0 0.00 0.00 0.00 76 1021.0
20201201031624 22 113 0.0 0.0 0.00 0.00 0.00 76 1021.0
20201201030023 22 112 0.0 0.0 0.00 0.00 0.00 76 1021.2
20201201023018 23 63 0.0 0.0 0.00 0.00 0.00 77 1020.9
20201201021527 23 63 0.0 0.0 0.00 0.00 0.00 77 1021.1
20201201020027 23 63 0.0 1.0 0.00 0.00 0.00 76 1021.1
20201201013016 23 63 0.0 0.0 0.00 0.00 0.00 78 1021.1
20201201011518 22 36 0.0 2.0 0.00 0.00 0.00 77 1021.0
20201201010029 22 21 0.0 0.0 0.00 0.00 0.00 78 1021.1
20201201003226 23 317 0.0 0.0 0.00 0.00 0.00 72 1021.5
20201201001821 23 317 0.0 0.0 0.00 0.00 0.00 71 1021.8
20201201000217 24 317 0.0 0.0 0.00 0.00 0.00 71 1021.5
20201130233244 24 317 0.0 0.0 0.00 0.00 0.00 68 1021.5
20201130231802 25 317 0.0 0.0 0.00 0.00 0.00 66 1021.8
20201130230220 26 317 0.0 0.0 0.00 0.00 0.00 65 1021.9
20201130223145 28 317 0.0 0.0 0.00 0.00 0.00 61 1022.1
20201130221656 28 316 0.0 0.0 0.00 0.00 0.00 60 1022.1
20201130220218 28 317 0.0 0.0 0.00 0.00 0.00 59 1022.1
20201130213034 28 305 0.0 2.0 0.00 0.00 0.00 60 1022.0
20201130211526 28 244 0.0 0.0 0.00 0.00 0.00 60 1022.1
20201130210030 28 274 0.0 1.0 0.00 0.00 0.00 60 1022.1
20201130203155 27 340 0.0 0.0 0.00 0.00 0.00 61 1022.6
20201130201651 27 133 0.0 1.0 0.00 0.00 0.00 64 1022.7
20201130200208 26 117 0.0 3.0 0.00 0.00 0.00 65 1022.7
20201130193136 26 298 0.0 2.0 0.00 0.00 0.00 64 1022.9
20201130191618 26 118 0.0 1.0 0.00 0.00 0.00 65 1023.4
20201130190141 25 111 0.0 2.0 0.00 0.00 0.00 67 1023.6
20201130183137 24 40 0.0 1.0 0.00 0.00 0.00 69 1023.9
20201130181628 24 9 0.0 1.0 0.00 0.00 0.00 68 1024.2
20201130180142 23 159 0.0 2.0 0.00 0.00 0.00 69 1024.6
20201130173157 23 127 0.0 1.0 0.00 0.00 0.00 70 1025.1
20201130171610 23 134 0.0 1.0 0.00 0.00 0.00 71 1025.6
20201130170053 22 75 0.0 3.0 0.00 0.00 0.00 71 1025.8
20201130163038 21 355 0.0 1.0 0.00 0.00 0.00 74 1026.0
20201130161605 20 33 0.0 0.0 0.00 0.00 0.00 74 1026.1
20201130160050 20 338 0.0 3.0 0.00 0.00 0.00 75 1026.3
20201130153043 19 61 0.0 1.0 0.00 0.00 0.00 78 1026.2
20201130151557 19 355 0.0 0.0 0.00 0.00 0.00 78 1026.2
20201130150037 18 5 0.0 2.0 0.00 0.00 0.00 78 1026.1
20201130143048 18 14 0.0 0.0 0.00 0.00 0.00 79 1026.1
20201130141523 18 30 0.0 0.0 0.00 0.00 0.00 81 1026.0
20201130140119 17 30 0.0 0.0 0.00 0.00 0.00 81 1025.8
20201130133019 17 30 0.0 0.0 0.00 0.00 0.00 80 1025.9
20201130131534 18 30 0.0 0.0 0.00 0.00 0.00 80 1025.9
20201130130021 18 27 0.0 2.0 0.00 0.00 0.00 80 1026.2
20201130123022 19 27 0.0 3.0 0.00 0.00 0.00 78 1026.1
20201130121511 19 20 0.0 2.0 0.00 0.00 0.00 77 1026.3
20201130120324 19 33 0.0 3.0 0.00 0.00 0.00 77 1026.3
20201130120020 19 22 0.0 3.0 0.00 0.00 0.00 77 1026.3
20201130113257 20 26 0.0 6.0 0.00 0.00 0.00 76 1026.3
20201130111736 20 323 3.0 11.0 0.00 0.00 0.00 75 1026.4
20201130110132 20 355 0.0 9.0 0.00 0.00 0.00 75 1026.6
20201130103256 21 39 0.0 4.0 0.00 0.00 0.00 75 1026.2
20201130101603 21 34 0.0 9.0 0.00 0.00 0.00 73 1026.1
20201130100154 22 40 1.0 9.0 0.00 0.00 0.00 73 1025.9
20201130093144 22 360 0.0 9.0 0.00 0.00 0.00 73 1026.0
20201130091721 22 355 0.0 5.0 0.00 0.00 0.00 73 1026.2
20201130090209 22 320 3.0 11.0 0.00 0.00 0.00 73 1026.5
20201130083349 22 349 4.0 17.0 0.00 0.00 0.00 73 1026.7
20201130081658 22 360 3.0 10.0 0.00 0.00 0.00 73 1026.5
20201130080229 22 322 0.0 11.0 0.00 0.00 0.00 73 1026.4